Weather History for Cagliari, Italy

Change the Weather History Date:

Wednesday, May 8, 2013

  Actual Average Record
Temperature  
Mean Temperature 68 °F -  
Max Temperature 81 °F 74 °F 82 °F (2003)
Min Temperature 55 °F 56 °F 48 °F (2004)
Cooling Degree Days 3    
Growing Degree Days 18 (Base 50)    
Moisture  
Dew Point 49 °F    
Average Humidity 53    
Maximum Humidity 77    
Minimum Humidity 20    
Precipitation  
Precipitation 0.20 in 0.03 in - ()
Sea Level Pressure  
Sea Level Pressure 29.96 in    
Wind  
Wind Speed 11 mph ()    
Max Wind Speed 20 mph    
Max Gust Speed -    
Visibility 6.4 miles    
Events      
Averages and records for this station are not official NWS values.
T = Trace of Precipitation, MM = Missing Value Source: Averaged Metar Reports

Daily Weather History Graph

Daily Weather History Graph

Search for Another Location

Airport:

Trip Planner

Search our weather history database for the weather conditions in past years. The results will help you decide how hot, cold, wet, or windy it might be!

Date:

Astronomy

May. 08, 2013 Rise Set
Actual Time 6:17 AM CEST 8:23 PM CEST
Civil Twilight 5:47 AM CEST 8:53 PM CEST
Nautical Twilight 5:11 AM CEST 9:29 PM CEST
Astronomical Twilight 4:32 AM CEST 10:09 PM CEST
Moon 5:15 AM CEST (5/8) 7:06 PM CEST (5/8)
Length of Visible Light 15h 05m
Length of Day
14h 06m
Waning Crescent, 2% of the Moon is Illuminated
May 8
Waning Crescent
May 10
New
May 18
First Quarter
May 25
Full
May 31
Last Quarter

Hourly Weather History & Observations

Time (CEST) Temp. Dew Point Humidity Pressure Visibility Wind Dir Wind Speed Gust Speed Precip Events Conditions
12:15 AM 62.6 °F 46.4 °F 55% 30.01 in 6.2 mi NNW 9.2 mph - N/A   Scattered Clouds
12:45 AM 60.8 °F 46.4 °F 59% 30.01 in 6.2 mi NW 8.1 mph - N/A   Partly Cloudy
12:55 AM 60.8 °F 46.4 °F 59% 30.01 in 6.2 mi NW 8.1 mph - N/A   Partly Cloudy
1:15 AM 60.8 °F 46.4 °F 59% 30.01 in 6.2 mi NW 5.8 mph - N/A   Partly Cloudy
1:45 AM 60.8 °F 48.2 °F 63% 29.98 in 6.2 mi NW 8.1 mph - N/A   Scattered Clouds
1:55 AM 60.8 °F 48.2 °F 63% 29.98 in 6.2 mi NW 8.1 mph - N/A   Scattered Clouds
2:00 AM 61 °F 48 °F 52% 30.00 in 6 mi NW 8.1 mph - -   Partly Cloudy
2:15 AM 60.8 °F 48.2 °F 63% 29.98 in 6.2 mi NW 8.1 mph - N/A   Scattered Clouds
2:45 AM 60.8 °F 48.2 °F 63% 29.98 in 6.2 mi NW 8.1 mph - N/A   Scattered Clouds
2:55 AM 60.8 °F 48.2 °F 63% 29.98 in 6.2 mi NW 8.1 mph - N/A   Scattered Clouds
3:15 AM 60.8 °F 48.2 °F 63% 29.98 in 6.2 mi NNW 6.9 mph - N/A   Partly Cloudy
3:45 AM 60.8 °F 48.2 °F 63% 29.95 in 6.2 mi North 8.1 mph - N/A   Partly Cloudy
3:55 AM 60.8 °F 48.2 °F 63% 29.95 in 6.2 mi North 8.1 mph - N/A   Partly Cloudy
4:15 AM 59.0 °F 48.2 °F 67% 29.95 in 6.2 mi NNW 8.1 mph - N/A   Partly Cloudy
4:45 AM 57.2 °F 48.2 °F 72% 29.95 in 6.2 mi NW 8.1 mph - N/A   Partly Cloudy
4:55 AM 57.2 °F 48.2 °F 72% 29.95 in 6.2 mi NW 8.1 mph - N/A   Partly Cloudy
5:00 AM 57 °F 48 °F 62% 29.97 in 6 mi NW 8.1 mph - -   Scattered Clouds
5:15 AM 57.2 °F 46.4 °F 67% 29.95 in 6.2 mi NW 9.2 mph - N/A   Partly Cloudy
5:45 AM 57.2 °F 50.0 °F 77% 29.95 in 6.2 mi WNW 11.5 mph - N/A   Scattered Clouds
5:55 AM 57.2 °F 50.0 °F 77% 29.95 in 6.2 mi WNW 11.5 mph - N/A   Scattered Clouds
6:15 AM 57.2 °F 50.0 °F 77% 29.95 in 6.2 mi WNW 12.7 mph - N/A   Scattered Clouds
6:45 AM 55.4 °F 48.2 °F 77% 29.95 in 6.2 mi NW 10.4 mph - N/A   Scattered Clouds
6:55 AM 55.4 °F 48.2 °F 77% 29.95 in 6.2 mi NW 10.4 mph - N/A   Scattered Clouds
7:15 AM 55.4 °F 48.2 °F 77% 29.95 in 6.2 mi NW 11.5 mph - N/A   Scattered Clouds
7:45 AM 57.2 °F 48.2 °F 72% 29.95 in 6.2 mi NNW 11.5 mph - N/A   Scattered Clouds
7:55 AM 57.2 °F 48.2 °F 72% 29.95 in 6.2 mi NNW 11.5 mph - N/A   Scattered Clouds
8:00 AM 58 °F 49 °F 63% 29.97 in 6 mi NNW 11.5 mph - -   Scattered Clouds
8:15 AM 60.8 °F 50.0 °F 68% 29.95 in - NW 11.5 mph - N/A   Clear
8:45 AM 62.6 °F 48.2 °F 59% 29.95 in 6.2 mi NW 11.5 mph - N/A   Scattered Clouds
8:55 AM 62.6 °F 48.2 °F 59% 29.95 in 6.2 mi NW 11.5 mph - N/A   Scattered Clouds
9:15 AM 66.2 °F 42.8 °F 43% 29.95 in 6.2 mi NW 13.8 mph - N/A   Partly Cloudy
9:45 AM 68.0 °F 55.4 °F 64% 29.95 in 6.2 mi NW 12.7 mph - N/A   Partly Cloudy
9:55 AM 68.0 °F 55.4 °F 64% 29.95 in 6.2 mi NW 12.7 mph - N/A   Partly Cloudy
10:15 AM 69.8 °F 55.4 °F 60% 29.95 in 6.2 mi NW 12.7 mph - N/A   Scattered Clouds
10:45 AM 71.6 °F 57.2 °F 60% 29.95 in 6.2 mi WNW 12.7 mph - N/A   Scattered Clouds
10:55 AM 71.6 °F 57.2 °F 60% 29.95 in 6.2 mi WNW 12.7 mph - N/A   Scattered Clouds
11:00 AM 71 °F 57 °F 51% 29.97 in 6 mi WNW 12.7 mph - -   Mostly Cloudy
11:15 AM 73.4 °F 53.6 °F 50% 29.95 in 6.2 mi NW 15.0 mph - N/A   Scattered Clouds
11:45 AM 71.6 °F 50.0 °F 46% 29.95 in 6.2 mi NW 16.1 mph - N/A   Mostly Cloudy
11:55 AM 71.6 °F 50.0 °F 46% 29.95 in 6.2 mi NW 16.1 mph - N/A   Mostly Cloudy
12:15 PM 73.4 °F 53.6 °F 50% 29.95 in 6.2 mi NW 16.1 mph - N/A   Mostly Cloudy
12:45 PM 73.4 °F 51.8 °F 47% 29.95 in 6.2 mi NW 15.0 mph - N/A   Mostly Cloudy
12:55 PM 73.4 °F 51.8 °F 47% 29.95 in 6.2 mi NW 15.0 mph - N/A   Mostly Cloudy
1:15 PM 77.0 °F 50.0 °F 39% 29.95 in 6.2 mi NNW 16.1 mph - N/A   Mostly Cloudy
1:45 PM 77.0 °F 44.6 °F 32% 29.95 in 6.2 mi NW 13.8 mph - N/A   Mostly Cloudy
1:55 PM 77.0 °F 44.6 °F 32% 29.95 in 6.2 mi NW 13.8 mph - N/A   Mostly Cloudy
2:00 PM 77 °F 45 °F 22% 29.96 in 9 mi NW 13.8 mph - -   Partly Cloudy
2:15 PM 77.0 °F 46.4 °F 34% 29.92 in 6.2 mi NW 15.0 mph - N/A   Mostly Cloudy
2:45 PM 77.0 °F 46.4 °F 34% 29.95 in 6.2 mi NW 16.1 mph - N/A   Mostly Cloudy
2:55 PM 77.0 °F 46.4 °F 34% 29.95 in 6.2 mi NW 16.1 mph - N/A   Mostly Cloudy
3:15 PM 78.8 °F 46.4 °F 32% 29.95 in 6.2 mi NW 16.1 mph - N/A   Scattered Clouds
3:45 PM 80.6 °F 48.2 °F 32% 29.92 in 6.2 mi NW 17.3 mph - N/A   Scattered Clouds
3:55 PM 80.6 °F 48.2 °F 32% 29.92 in 6.2 mi NW 17.3 mph - N/A   Scattered Clouds
4:15 PM 80.6 °F 51.8 °F 37% 29.92 in 6.2 mi NW 19.6 mph - N/A   Scattered Clouds
4:45 PM 80.6 °F 46.4 °F 30% 29.92 in 6.2 mi NW 19.6 mph - N/A   Scattered Clouds
4:55 PM 80.6 °F 46.4 °F 30% 29.92 in 6.2 mi NW 19.6 mph - N/A   Scattered Clouds
5:00 PM 80 °F 46 °F 20% 29.94 in 6 mi NW 19.6 mph - -   Partly Cloudy
5:15 PM 78.8 °F 46.4 °F 32% 29.92 in 6.2 mi NW 19.6 mph - N/A   Scattered Clouds
5:45 PM 77.0 °F 46.4 °F 34% 29.92 in 6.2 mi NW 18.4 mph - N/A   Scattered Clouds
5:55 PM 77.0 °F 46.4 °F 34% 29.92 in 6.2 mi NW 18.4 mph - N/A   Scattered Clouds
6:15 PM 75.2 °F 48.2 °F 38% 29.95 in 6.2 mi NW 16.1 mph - N/A   Scattered Clouds
6:45 PM 75.2 °F 50.0 °F 41% 29.92 in 6.2 mi NW 17.3 mph - N/A   Scattered Clouds
6:55 PM 75.2 °F 50.0 °F 41% 29.92 in 6.2 mi NW 17.3 mph - N/A   Scattered Clouds
7:15 PM 73.4 °F 48.2 °F 41% 29.95 in 6.2 mi NNW 15.0 mph - N/A   Scattered Clouds
7:45 PM 73.4 °F 48.2 °F 41% 29.95 in 6.2 mi NNW 17.3 mph - N/A   Scattered Clouds
7:55 PM 73.4 °F 48.2 °F 41% 29.95 in 6.2 mi NNW 17.3 mph - N/A   Scattered Clouds
8:00 PM 73 °F 49 °F 31% 29.95 in 12 mi NNW 17.3 mph - -   Partly Cloudy
8:15 PM 71.6 °F 50.0 °F 46% 29.95 in 6.2 mi NNW 17.3 mph - N/A   Scattered Clouds
8:45 PM 69.8 °F 50.0 °F 49% 29.95 in 6.2 mi North 16.1 mph - N/A   Scattered Clouds
8:55 PM 69.8 °F 50.0 °F 49% 29.95 in 6.2 mi North 16.1 mph - N/A   Scattered Clouds
9:15 PM 68.0 °F 51.8 °F 56% 29.98 in 6.2 mi North 15.0 mph - N/A   Scattered Clouds
9:45 PM 66.2 °F 51.8 °F 60% 29.98 in 6.2 mi NNW 16.1 mph - N/A   Partly Cloudy
9:55 PM 66.2 °F 51.8 °F 60% 29.98 in 6.2 mi NNW 16.1 mph - N/A   Partly Cloudy
10:15 PM 64.4 °F 55.4 °F 73% 29.98 in 6.2 mi NNW 15.0 mph - N/A   Partly Cloudy
10:45 PM 64.4 °F 50.0 °F 59% 30.01 in 6.2 mi NW 10.4 mph - N/A   Partly Cloudy
10:55 PM 64.4 °F 50.0 °F 59% 30.01 in 6.2 mi NW 10.4 mph - N/A   Partly Cloudy
11:00 PM 64 °F 50 °F 51% 30.01 in 12 mi NW 10.4 mph - -   Scattered Clouds
11:15 PM 62.6 °F 50.0 °F 63% 30.01 in 6.2 mi NW 9.2 mph - N/A   Partly Cloudy
11:45 PM 62.6 °F 50.0 °F 63% 30.01 in 6.2 mi NW 9.2 mph - N/A   Partly Cloudy
11:55 PM 62.6 °F 50.0 °F 63% 30.01 in 6.2 mi NW 9.2 mph - N/A   Partly Cloudy